Estación de Combarbala

Ultimos registro cada 15 minutos 89
Estación Fecha / Hora Temperatura Humedad Lluvia Velocidad Dirección Radiación Presion
89 Combarbala 02-09-2026 22:00 12,6 58,7 0 0 358 0,6 913,9
88 Combarbala 02-09-2026 21:45 13 58,1 0 0 358 0,6 913,9
87 Combarbala 02-09-2026 21:30 14,2 53,8 0 0 358 0,6 913,9
86 Combarbala 02-09-2026 21:15 13,5 57 0 0 358 0,6 913,8
85 Combarbala 02-09-2026 21:00 12,8 60,2 0 0 358 0,6 913,9
84 Combarbala 02-09-2026 20:45 13,2 55,9 0 0 358 0,6 914
83 Combarbala 02-09-2026 20:30 14,3 53,6 0 0 358 0,6 913,9
82 Combarbala 02-09-2026 20:15 14,6 51,6 0 0 358 0,6 913,8
81 Combarbala 02-09-2026 20:00 15,2 47,7 0 0 358 0,6 913,4
80 Combarbala 02-09-2026 19:45 15,3 56,6 0 0 358 0,6 913,4
79 Combarbala 02-09-2026 19:30 14,7 61,1 0 0 358 0,6 913,3
78 Combarbala 02-09-2026 19:15 16 57,3 0 0 358 0,6 913
77 Combarbala 02-09-2026 19:00 16,7 53,8 0 0,5 358 0,6 912,9
76 Combarbala 02-09-2026 18:45 16,9 54,1 0 0,5 355 0,6 912,7
75 Combarbala 02-09-2026 18:30 17,4 50,2 0 0 354 3,1 912,7
74 Combarbala 02-09-2026 18:15 18,7 45,9 0 0 354 9,4 912,6
73 Combarbala 02-09-2026 18:00 21,7 34,9 0 0 354 55,6 912,4
72 Combarbala 02-09-2026 17:45 20,7 39,7 0 0 354 116,9 912
71 Combarbala 02-09-2026 17:30 19,7 42,4 0 0 354 39,4 912,3
70 Combarbala 02-09-2026 17:15 20,5 39,6 0 0 354 115,6 912,1
69 Combarbala 02-09-2026 17:00 20,4 42,3 0 0 354 116,9 912
68 Combarbala 02-09-2026 16:45 20,7 40,1 0 0 355 111,9 911,9
67 Combarbala 02-09-2026 16:30 21,7 32,9 0 0 355 131,9 911,8
66 Combarbala 02-09-2026 16:15 22,2 29,5 0 0 355 178,1 911,8
65 Combarbala 02-09-2026 16:00 22,1 25,8 0 0 355 193,1 911,8
64 Combarbala 02-09-2026 15:45 22,3 28,9 0 0 355 195,6 911,7
63 Combarbala 02-09-2026 15:30 22,2 27,6 0 0 355 215,6 911,8
62 Combarbala 02-09-2026 15:15 22,6 31,5 0 0 355 200,6 911,7
61 Combarbala 02-09-2026 15:00 22,5 32,5 0 0 355 231,9 911,9
60 Combarbala 02-09-2026 14:45 22,8 29,2 0 0 355 280,6 911,9
59 Combarbala 02-09-2026 14:30 22,3 37,7 0 0,5 345 309,4 912,1
58 Combarbala 02-09-2026 14:15 22,6 35,9 0 0 319 279,4 912,3
57 Combarbala 02-09-2026 14:00 22,5 34,4 0 0 319 373,1 912,4
56 Combarbala 02-09-2026 13:45 21,8 37,1 0 0 319 290,6 912,5
55 Combarbala 02-09-2026 13:30 21,4 40,1 0 0 338 295,6 912,4
54 Combarbala 02-09-2026 13:15 21,3 37,8 0 0 347 293,1 912,5
53 Combarbala 02-09-2026 13:00 21,3 39,2 0 0 347 310,6 912,5
52 Combarbala 02-09-2026 12:45 21,2 43,1 0 0 347 328,1 912,6
51 Combarbala 02-09-2026 12:30 21,2 39,9 0 0 347 294,4 912,8
50 Combarbala 02-09-2026 12:15 20,7 37,4 0 0 347 286,9 912,9
49 Combarbala 02-09-2026 12:00 20,4 43,7 0 0 347 300,6 912,6
48 Combarbala 02-09-2026 11:45 20,9 42,9 0 0 350 303,1 912,4
47 Combarbala 02-09-2026 11:30 19,8 39,8 0 0 357 313,1 912,6
46 Combarbala 02-09-2026 11:15 19,6 44,6 0 0 357 253,1 912,6
45 Combarbala 02-09-2026 11:00 19,4 46,3 0 0 357 236,9 912,6
44 Combarbala 02-09-2026 10:45 18,7 46,1 0 0 357 225,6 912,4
43 Combarbala 02-09-2026 10:30 18,4 41,3 0 0 357 210,6 912,4
42 Combarbala 02-09-2026 10:15 18,5 46,2 0 0 357 213,1 912,5
41 Combarbala 02-09-2026 10:00 17,9 48 0 0 357 211,9 912,2
40 Combarbala 02-09-2026 09:45 17,1 53,7 0 0 357 180,6 912,3
39 Combarbala 02-09-2026 09:30 17,1 50,6 0 0 357 174,4 912,2
38 Combarbala 02-09-2026 09:15 16,4 53 0 0 357 174,4 912,2
37 Combarbala 02-09-2026 09:00 15,3 58,2 0 0 357 149,4 912,1
36 Combarbala 02-09-2026 08:45 14,9 55,6 0 0 357 113,1 912,1
35 Combarbala 02-09-2026 08:30 14,5 58,8 0 0 357 83,1 912
34 Combarbala 02-09-2026 08:15 14,8 50,6 0 0 357 66,9 911,8
33 Combarbala 02-09-2026 08:00 14 50,2 0 0 357 55,6 911,8
32 Combarbala 02-09-2026 07:45 13,7 53,3 0 0 357 39,4 911,7
31 Combarbala 02-09-2026 07:30 12,9 55,3 0 0 357 24,4 911,5
30 Combarbala 02-09-2026 07:15 14,1 48,5 0 0 357 5,6 911,3
29 Combarbala 02-09-2026 07:00 13,9 51,1 0 0 357 0,6 911,3
28 Combarbala 02-09-2026 06:45 13,2 54,8 0 0 357 0,6 911,2
27 Combarbala 02-09-2026 06:30 13,6 51,4 0 0 357 0,6 911,1
26 Combarbala 02-09-2026 06:15 13,9 50,3 0 0 357 0,6 910,9
25 Combarbala 02-09-2026 06:00 13,1 54 0 0 357 0,6 910,9
24 Combarbala 02-09-2026 05:45 13,6 53,9 0 0 357 0,6 910,9
23 Combarbala 02-09-2026 05:30 14,5 47,8 0 0 357 0,6 910,9
22 Combarbala 02-09-2026 05:15 14,4 48,7 0 0 357 0,6 910,9
21 Combarbala 02-09-2026 05:00 14,2 47,7 0 0 357 0,6 911,1
20 Combarbala 02-09-2026 04:45 14,6 46,9 0 0 350 0,6 911,2
19 Combarbala 02-09-2026 04:30 14 49,7 0 0 340 0,6 911,2
18 Combarbala 02-09-2026 04:15 14,4 48 0 0 338 0,6 911,1
17 Combarbala 02-09-2026 04:00 14,6 46,7 0 0 338 0,6 911,1
16 Combarbala 02-09-2026 03:45 14,4 49,6 0 0 25 0,6 911,2
15 Combarbala 02-09-2026 03:30 14,6 49,7 0 0 51 0,6 911,1
14 Combarbala 02-09-2026 03:15 14,5 48,4 0 0 51 0,6 911,3
13 Combarbala 02-09-2026 03:00 14,8 46,7 0 0 51 0,6 911,4
12 Combarbala 02-09-2026 02:45 14,7 47,7 0 0 51 0,6 911,5
11 Combarbala 02-09-2026 02:30 14,1 54,8 0 0 51 0,6 911,4
10 Combarbala 02-09-2026 02:15 14,6 51,5 0 0 51 0,6 911,7
9 Combarbala 02-09-2026 02:00 14,8 49,3 0 0 51 0,6 911,9
8 Combarbala 02-09-2026 01:45 14,5 51,1 0 0,5 51 0,6 911,8
7 Combarbala 02-09-2026 01:30 14,6 52,5 0 0 51 0,6 911,9
6 Combarbala 02-09-2026 01:15 15,4 47 0 0 51 0,6 911,9
5 Combarbala 02-09-2026 01:00 14,8 48,6 0 0 51 0,6 911,8
4 Combarbala 02-09-2026 00:45 15,1 47,8 0 0 51 0,6 912,2
3 Combarbala 02-09-2026 00:30 14,4 54,2 0 0 51 0,6 912,1
2 Combarbala 02-09-2026 00:15 15,2 51,4 0 0 51 0,6 912,3
1 Combarbala 02-09-2026 00:00 15 48,9 0 0 51 0,6 912,5